Theta_e
300 298 297 296 295 294 293 293 293 293 293 294 294 294 294 294 294 294 293 292 293 295
295 295 294 293 292 291 291 292 291 291 291 291 291 292 292 291 291 291 291 290 291 291
292 291 290 290 289 289 289 289 289 289 288 289 289 289 289 288 290 290 289 289 288 289
289 289 289 288 287 287 288 288 287 287 287 287 287 287 287 287 288 287 286 287 286 287
289 288 287 286 286 286 286 286 286 286 285 286 286 286 285 285 286 285 285 285 285 285
286 286 285 285 285 285 285 284 285 285 284 284 284 284 285 286 286 285 285 285 284 284
285 284 284 284 283 283 283 283 283 283 283 283 283 284 285 285 284 284 285 285 285 284
284 284 283 282 282 281 281 281 281 281 281 281 282 284 283 283 283 284 284 284 284 284
283 281 281 280 280 280 280 280 280 280 280 280 282 285 286 285 283 284 283 283 283 284
281 280 280 280 279 279 279 279 279 279 279 279 279 284 285 285 283 283 283 283 283 283
280 279 278 278 277 277 278 277 277 278 278 277 279 283 285 285 283 283 283 283 283 283
279 277 276 275 275 276 275 275 275 277 274 273 275 282 284 284 281 282 281 282 283 282
277 275 274 275 274 275 273 275 275 274 273 272 269 280 283 283 279 273 281 283 284 283
275 274 274 273 273 270 268 270 266 269 269 268 271 274 282 283 280 280 282 282 282 283
Wind_Speed
10 7 6 7 6 4 5 4 5 5 6 6 6 6 5 4 4 5 4 6 5 4
9 10 9 8 6 5 5 4 5 6 6 6 6 6 6 4 5 5 4 5 6 4
9 9 8 7 7 6 5 5 6 6 6 6 6 5 5 4 4 5 4 4 6 5
9 8 7 7 6 6 6 6 6 5 5 5 5 6 5 5 5 5 5 4 5 6
9 7 7 7 6 6 6 5 5 5 5 5 4 3 4 5 5 6 6 6 7 8
7 7 7 6 5 5 5 5 5 5 5 4 5 5 5 5 5 6 6 5 6 7
7 6 6 5 5 5 5 5 4 4 4 5 5 4 5 5 5 5 7 8 9 9
6 6 5 5 5 5 5 4 3 4 5 4 4 5 6 5 6 8 8 8 8 8
6 6 5 5 5 4 4 4 5 5 5 6 4 9 10 9 7 7 8 8 8 7
7 6 5 5 5 4 5 4 5 5 5 5 5 9 9 11 5 6 6 8 8 7
6 6 5 5 5 4 3 4 3 4 4 4 4 9 9 9 4 5 6 6 6 6
6 6 5 5 4 3 3 3 2 2 4 3 5 10 9 8 3 4 5 6 7 6
6 6 6 5 5 2 2 1 1 3 3 5 4 9 11 9 2 4 5 7 5 10
5 5 5 5 3 3 2 2 2 2 3 3 3 6 12 12 2 4 5 7 7 5
Wind_Direction
98 106 98 98 100 89 90 82 54 52 51 44 38 34 35 34 26 24 25 11 359 321
104 102 108 97 95 99 95 84 72 60 51 37 36 31 26 24 21 17 10 351 346 333
102 100 99 96 94 91 87 80 69 60 57 48 33 26 26 16 12 14 357 349 334 325
102 98 97 96 89 82 79 71 68 58 53 52 32 18 17 8 14 4 341 339 335 320
108 104 99 92 85 82 84 76 73 54 46 36 25 15 14 7 2 359 344 336 337 334
106 106 103 103 99 90 93 76 61 52 43 28 11 10 12 5 347 335 326 329 329 327
119 118 114 114 107 96 85 74 59 48 40 28 10 15 13 354 341 329 342 342 341 338
125 118 117 111 97 92 82 72 52 43 36 25 20 18 2 1 355 345 336 338 339 334
129 126 121 112 112 105 84 52 44 31 20 13 11 359 2 0 344 338 338 337 336 325
143 135 131 123 112 83 61 51 39 23 14 357 342 348 348 350 345 333 330 325 326 319
148 138 139 126 96 81 61 52 35 5 345 346 324 349 346 344 335 322 297 289 296 283
152 142 129 115 114 108 80 54 12 334 326 325 308 341 342 344 289 279 297 297 294 299
146 148 142 139 144 126 86 92 18 333 302 302 297 340 350 351 314 339 318 303 299 309
143 145 139 138 126 109 129 73 21 346 313 303 280 318 341 343 325 296 302 327 323 319